Flight Track Log - Related Links

Times and Time Zones

All times are in EST time to prevent confusion due to time zone crossing. See the UCA597 flight status page for this flight to view local times or setup timezone preferences in your user account.

Time Position Orientation Groundspeed Altitude Reporting Facility
EST Latitude Longitude Course Direction KTS MPH feet Rate Location/Type
Mon 05:40:41 PM 39.0450 -77.4517 352° North 198 228 3,200  Level Washington Center
Mon 05:41:41 PM 39.0969 -77.4611 352° North 193 222 5,100 1,686 Climbing Washington Center
Mon 05:42:42 PM 39.1489 -77.4678 354° North 193 222 6,600 1,610 Climbing Washington Center
Mon 05:43:44 PM 39.2167 -77.4667 North 191 220 8,400 1,382 Climbing Potomac TRACON
Mon 05:45:40 PM 39.3092 -77.4828 352° North 194 223 10,700 881 Climbing Washington Center
Mon 05:46:41 PM 39.3694 -77.4897 355° North 205 236 11,000 639 Climbing Washington Center
Mon 05:47:42 PM 39.4364 -77.4806 North 218 251 12,000 958 Climbing Washington Center
Mon 05:48:40 PM 39.5053 -77.4717 North 236 272 12,900 988 Climbing Washington Center
Mon 05:50:32 PM 39.6383 -77.4544 North 236 272 14,800 942 Climbing New York Center
Mon 05:51:32 PM 39.6969 -77.4544 360° North 241 277 15,600 800 Climbing New York Center
Mon 05:52:32 PM 39.7722 -77.4508 North 236 272 16,400 800 Climbing New York Center
Mon 05:53:32 PM 39.8325 -77.4511 360° North 236 272 17,200 850 Climbing New York Center
Mon 05:54:32 PM 39.9078 -77.4503 360° North 236 272 18,100 550 Climbing New York Center
Mon 05:55:32 PM 39.9661 -77.4506 360° North 236 272 18,300 450 Climbing New York Center
Mon 05:56:32 PM 40.0414 -77.4469 North 236 272 19,000 350 Climbing New York Center
Mon 05:57:32 PM 40.1058 -77.4475 360° North 241 277 19,000  Level New York Center
Mon 05:58:32 PM 40.1875 -77.4444 North 261 300 19,000  Level New York Center
Mon 05:59:32 PM 40.2583 -77.4458 359° North 275 316 19,000  Level New York Center
Mon 06:00:32 PM 40.3439 -77.4433 North 275 316 19,000  Level New York Center
Mon 06:01:32 PM 40.4067 -77.4003 28° Northeast 270 311 19,000  Level New York Center
Mon 06:02:32 PM 40.4853 -77.3394 30° Northeast 290 334 19,000  Level New York Center
Mon 06:03:32 PM 40.5483 -77.2936 29° Northeast 290 334 19,000 -600 Level New York Center
Mon 06:04:32 PM 40.6289 -77.2303 31° Northeast 290 334 17,800 -800 Descending New York Center
Mon 06:05:32 PM 40.6964 -77.1764 31° Northeast 296 341 17,400 -800 Descending New York Center
Mon 06:06:32 PM 40.7681 -77.1228 30° Northeast 301 346 16,200 -1,200 Descending New York Center
Mon 06:07:32 PM 40.8397 -77.0661 31° Northeast 301 346 15,000 -600 Descending New York Center
Mon 06:08:32 PM 40.9092 -77.0150 29° Northeast 301 346 15,000  Level New York Center
Mon 06:09:32 PM 40.9764 -76.9633 30° Northeast 289 333 15,000  Level New York Center
Mon 06:10:32 PM 41.0394 -76.9142 30° Northeast 282 325 15,000  Level New York Center
Mon 06:11:32 PM 41.1047 -76.8622 31° Northeast 277 319 15,000  Level New York Center
Mon 06:12:32 PM 41.1700 -76.8100 31° Northeast 277 319 15,000  Level New York Center
Mon 06:13:32 PM 41.2350 -76.7581 31° Northeast 277 319 15,000  Level New York Center
Mon 06:14:32 PM 41.3022 -76.7086 29° Northeast 277 319 15,000  Level New York Center
Mon 06:15:32 PM 41.3739 -76.6486 32° Northeast 277 319 15,000  Level New York Center
Mon 06:16:32 PM 41.4389 -76.5989 30° Northeast 277 319 15,000  Level New York Center
Mon 06:17:32 PM 41.5039 -76.5464 31° Northeast 277 319 15,000  Level New York Center
Mon 06:18:32 PM 41.5644 -76.4989 30° Northeast 277 319 15,000 -500 Level New York Center
Mon 06:19:32 PM 41.6317 -76.4464 30° Northeast 282 325 14,000 -1,250 Descending New York Center
Mon 06:20:32 PM 41.7075 -76.3833 32° Northeast 282 325 12,500 -1,500 Descending New York Center
Mon 06:21:32 PM 41.7767 -76.3281 31° Northeast 282 325 11,000 -1,450 Descending New York Center
Mon 06:22:32 PM 41.8414 -76.2778 30° Northeast 282 325 9,600 -1,450 Descending New York Center
Mon 06:23:32 PM 41.8997 -76.2325 30° Northeast 282 325 8,100 -1,450 Descending New York Center
Mon 06:24:32 PM 41.9625 -76.1792 32° Northeast 276 318 6,700 -1,500 Descending New York Center
Mon 06:25:32 PM 42.0294 -76.1258 31° Northeast 260 299 5,100 -1,400 Descending New York Center
Mon 06:26:32 PM 42.0792 -76.0853 31° Northeast 248 285 3,900 -750 Descending New York Center
Mon 06:27:32 PM 42.1336 -76.0786 North 211 243 3,600 -150 Descending New York Center
Mon 06:28:32 PM 42.1836 -76.0825 357° North 191 220 3,600 50 Level New York Center
Mon 06:29:32 PM 42.2225 -76.0911 351° North 162 186 3,700 -350 Climbing New York Center
Mon 06:30:32 PM 42.2469 -76.0594 44° Northeast 134 154 2,900 -600 Descending New York Center
Mon 06:31:32 PM 42.2467 -76.0175 90° East 89 102 2,500 -350 Descending New York Center
Mon 06:32:32 PM 42.2439 -75.9864 97° East 84 97 2,200 6,250 Descending New York Center
Mon 06:33:32 PM 42.2450 -75.9586 87° East 84 97 15,000 12,800 Climbing New York Center
Mon 06:35:00 PM 42.2000 -75.9667 North  Level FlightAware Approximate
Mon 06:42:00 PM 42.2084 -75.9796 North  Level Estimated
Mon 06:43:00 PM 42.2084 -75.9796 North  Level Estimated

Login

Don't have an account? Register now (free) for customized features, flight alerts, and more!